Theta_e
321 316 320 325 324 325 329 327 326 326 326 325 325 325 328 328 330 335 338 335 339 336 324 320 319 324 329 325 324 331 334 331 326 324 318 318 319 320 319 319 319 319 319 319 319 319 320 320 320
320 317 321 325 327 326 329 326 324 325 324 324 325 326 327 328 327 330 329 336 336 339 324 321 319 321 328 325 323 328 331 327 325 320 319 320 320 320 320 320 320 320 320 320 320 320 320 320 320
321 316 322 326 331 327 326 324 325 324 323 325 327 327 326 331 335 337 341 339 338 334 323 321 319 320 326 323 323 326 326 326 322 320 321 321 321 321 321 320 320 320 320 320 320 320 320 320 320
325 324 322 325 328 328 322 324 324 324 324 324 327 330 329 331 333 340 342 342 338 341 325 321 319 319 324 323 322 325 326 324 320 321 322 322 322 322 321 320 320 320 320 320 320 320 320 320 320
325 325 327 327 326 324 322 322 321 324 324 324 328 331 332 330 334 342 343 341 338 341 338 321 320 319 320 321 321 324 323 320 322 322 322 322 322 322 321 320 320 320 319 320 320 320 320 320 320
326 325 328 329 328 324 322 321 324 324 324 324 329 330 332 328 333 341 341 341 338 339 341 321 320 320 319 319 320 321 319 321 322 322 322 322 322 322 321 321 320 320 319 319 320 320 320 320 320
325 327 328 327 327 327 325 325 326 326 327 326 328 330 331 328 331 338 341 338 336 338 341 323 320 320 320 319 319 319 318 320 322 322 322 321 321 321 320 320 319 319 318 319 319 319 319 319 320
322 326 327 327 327 327 325 325 325 327 327 327 327 330 330 326 330 337 341 337 336 338 340 343 319 320 320 320 319 319 319 320 321 321 321 321 320 320 319 319 319 318 318 318 318 318 318 318 319
321 326 327 326 327 327 325 326 326 326 327 326 326 327 326 324 325 330 338 339 335 337 339 341 339 330 323 323 320 320 320 320 321 321 321 321 320 320 320 319 319 318 317 317 316 316 316 316 317
322 324 324 325 326 326 325 325 325 325 325 326 327 326 325 323 324 325 331 340 335 334 336 338 340 341 340 338 334 321 321 321 321 321 321 321 321 324 321 320 319 318 318 317 316 316 315 315 323
320 323 322 322 323 324 325 325 325 323 325 324 325 323 322 322 323 324 326 333 337 333 335 337 342 343 342 339 340 337 336 333 326 323 322 321 330 333 323 328 319 318 318 317 318 316 316 326 330
318 319 320 320 321 322 324 323 324 324 323 321 321 321 321 321 322 323 325 327 334 336 333 336 341 344 343 342 341 341 339 341 341 334 323 323 323 328 332 336 335 325 330 319 323 332 332 331 331
315 317 316 317 318 319 320 320 321 322 321 318 321 320 320 320 321 321 323 325 326 335 338 335 336 331 329 331 339 337 339 340 341 339 323 322 324 325 325 333 327 333 333 331 330 332 332 333 332
314 314 315 315 315 316 317 317 317 317 317 316 321 319 318 319 319 319 322 326 324 333 330 335 338 327 321 320 321 323 325 338 335 338 332 322 325 330 330 323 319 321 323 329 323 331 331 333 332
313 314 315 315 315 316 315 316 317 316 316 317 323 319 318 318 318 318 320 321 321 328 331 328 326 331 328 322 320 320 321 321 325 323 329 324 321 321 321 321 319 318 320 319 324 333 333 332 334
314 314 314 316 315 314 315 317 318 315 315 317 317 321 322 317 317 317 318 316 317 318 328 332 329 328 332 331 325 322 320 320 320 320 320 320 320 319 318 318 318 322 329 334 334 335 335 337 338
316 314 315 315 315 315 315 315 317 314 315 315 314 317 318 316 316 317 317 317 315 314 314 320 331 332 327 330 334 333 326 324 321 320 321 332 325 319 319 319 320 334 335 333 332 330 334 337 340
316 315 314 314 315 315 315 316 316 315 314 314 314 314 316 315 316 316 316 317 313 313 314 315 315 328 332 330 330 326 332 334 328 326 320 322 319 320 320 320 324 335 333 330 331 330 330 335 341
313 314 314 315 315 314 315 316 316 315 315 314 313 313 314 314 315 315 315 316 317 314 313 314 314 315 330 331 331 332 339 340 340 337 330 324 321 321 322 322 333 336 332 333 332 330 331 335 339
313 314 315 315 314 314 315 315 315 316 315 314 314 314 313 315 314 313 314 316 318 314 316 312 313 314 321 331 332 332 330 333 338 342 338 336 330 324 324 324 333 333 333 332 331 331 334 335 341
313 314 314 314 314 314 314 315 316 314 314 313 314 314 314 313 313 314 315 317 317 317 313 315 313 313 313 315 326 329 331 332 337 343 343 337 337 337 336 328 333 333 331 334 332 333 334 340 344
313 314 313 313 314 315 315 315 315 315 315 314 314 314 314 313 313 315 316 316 317 316 314 312 313 313 315 314 314 315 329 332 330 339 343 343 335 338 339 330 335 333 331 332 332 334 338 336 343
313 313 313 314 314 314 314 314 315 314 314 314 315 313 313 314 316 315 315 316 316 316 313 313 312 312 312 313 314 315 321 328 331 337 342 343 338 337 340 333 334 336 334 333 333 335 338 336 343
313 313 314 315 314 313 313 313 313 314 314 314 314 312 313 315 316 316 315 316 316 317 318 316 312 312 312 313 315 315 315 317 324 330 337 343 347 339 340 337 337 338 338 336 337 338 336 334 339
314 315 316 315 314 314 314 313 313 314 313 313 313 312 314 315 316 316 316 316 317 318 319 320 320 314 312 312 313 314 315 315 315 315 327 334 342 346 339 339 338 339 339 338 337 337 334 331 338
315 315 315 314 313 312 313 312 314 313 312 312 313 314 314 315 315 315 315 316 317 318 320 321 321 322 318 313 313 315 315 315 319 321 317 326 335 340 343 334 339 339 338 336 338 335 329 335 334
314 315 314 314 313 313 313 313 313 314 313 314 314 314 314 315 315 315 315 316 318 318 318 319 320 321 323 323 326 327 321 316 315 315 315 319 319 335 333 329 333 336 333 337 336 328 328 334 338
314 313 313 313 313 312 312 314 314 314 313 314 314 314 314 314 314 315 315 316 317 317 318 318 319 320 321 323 325 326 330 331 324 316 314 315 317 318 328 330 330 333 335 338 327 329 339 338 342
313 313 312 313 314 316 314 314 316 314 314 315 314 314 314 315 315 315 315 316 316 316 317 317 317 317 319 321 323 325 327 330 333 334 321 315 316 318 322 332 332 334 337 330 326 338 344 336 346
313 313 313 320 315 315 316 316 315 315 315 314 314 314 315 314 315 315 314 315 315 317 315 315 315 316 316 318 320 323 326 327 329 333 325 319 327 322 327 342 331 336 334 327 328 336 344 343 345
Wind_Speed
10 8 2 1 6 6 12 5 2 6 7 2 4 8 8 12 9 3 3 9 9 21 21 23 23 26 27 24 24 24 23 21 19 18 19 19 19 19 18 16 16 14 13 11 10 9 9 8 7
7 5 4 3 7 10 11 3 10 3 4 7 7 9 11 11 9 15 17 11 11 22 23 24 26 27 29 27 26 25 23 22 19 19 20 20 19 18 17 16 14 13 12 11 9 8 7 7 7
4 2 5 4 11 13 11 4 7 5 5 3 5 5 5 2 10 13 12 6 16 25 27 26 26 28 31 29 28 27 26 23 21 22 22 20 19 17 16 14 13 12 10 9 7 6 5 5 5
2 3 5 9 14 13 9 4 3 6 6 2 5 7 4 3 20 20 20 12 20 25 28 27 27 29 31 31 30 28 26 24 24 24 22 20 18 16 14 12 11 10 8 7 5 4 2 2 1
4 6 9 10 14 4 9 12 11 11 11 8 6 6 3 11 21 17 12 14 22 27 29 30 30 31 32 33 32 31 28 26 25 23 22 19 17 15 13 11 10 8 7 6 4 3 2 2 3
11 8 11 13 15 9 7 8 11 10 10 8 8 9 1 15 24 20 9 12 20 27 28 33 32 32 33 33 32 32 31 29 26 24 22 19 17 14 13 11 10 9 8 6 5 5 5 5 6
15 11 17 18 16 11 10 8 15 10 10 7 5 10 5 18 22 19 6 8 20 25 25 33 35 34 34 33 33 33 32 30 28 25 22 19 17 14 13 11 10 9 8 7 6 7 7 7 8
17 12 22 19 17 20 13 12 12 13 5 6 5 3 12 18 19 16 8 8 19 23 23 25 36 37 36 35 34 33 33 31 29 26 23 20 18 15 14 13 12 11 10 9 9 8 8 9 10
15 14 19 24 21 16 11 12 9 13 13 12 8 9 11 17 16 14 10 6 17 21 23 24 27 33 36 34 35 34 33 32 30 27 25 22 20 18 18 16 15 12 12 12 11 11 10 12 13
16 16 27 22 20 18 16 19 12 8 14 16 14 8 13 18 16 14 11 4 17 21 23 24 25 27 28 27 30 36 35 33 31 30 27 25 23 20 19 19 17 16 14 15 15 14 14 15 12
18 23 21 24 19 21 21 23 22 16 14 18 15 15 19 18 15 13 10 7 12 20 22 23 25 26 27 27 26 28 29 29 31 32 30 27 22 19 20 16 18 18 16 16 17 18 17 13 12
16 19 21 25 20 19 18 21 24 21 21 8 16 19 22 19 17 13 8 6 3 13 23 23 24 26 30 26 27 25 27 25 25 29 32 29 27 22 18 14 13 15 13 14 15 13 14 14 15
16 19 13 17 22 25 22 23 20 21 17 11 23 18 18 20 18 14 9 6 5 2 10 22 25 30 34 37 27 29 29 27 25 26 31 30 27 23 21 18 16 13 11 11 11 13 14 14 15
4 14 16 18 19 21 20 23 21 25 15 10 23 18 20 16 12 11 8 3 9 8 6 8 19 27 32 36 39 36 36 27 31 25 27 32 28 25 20 20 17 14 13 12 12 11 14 16 17
12 13 15 18 21 22 22 22 25 22 14 23 25 21 16 14 12 7 5 4 9 14 14 14 13 15 28 36 40 40 37 39 33 30 32 31 30 29 24 19 16 13 14 14 15 17 20 18 17
11 11 15 14 11 19 15 19 3 3 15 20 22 24 25 15 11 7 2 4 6 5 18 31 12 8 11 27 33 37 39 42 38 41 36 35 37 32 28 24 16 13 12 9 13 16 23 19 16
10 13 8 7 4 4 11 14 20 4 8 6 6 14 16 14 10 6 4 5 4 5 4 10 25 27 11 6 17 28 35 38 40 41 38 34 43 35 30 26 15 10 12 11 13 19 25 24 18
6 9 7 11 7 9 13 13 12 13 12 12 15 17 15 14 10 6 6 6 8 8 8 7 6 24 40 26 16 18 26 31 36 36 40 49 44 42 33 25 18 13 7 4 15 29 31 28 19
8 9 11 8 6 10 13 16 16 19 19 19 18 18 19 14 11 6 9 10 8 8 12 10 14 8 28 40 30 29 22 19 27 30 41 47 46 39 35 27 20 18 11 16 33 30 36 29 27
10 13 12 8 8 9 15 19 20 20 20 24 23 22 21 17 11 7 6 8 9 11 9 12 12 11 14 31 48 43 38 32 26 26 37 42 43 43 37 31 28 25 20 23 32 29 25 27 24
12 12 12 11 13 16 19 20 21 7 12 11 13 14 10 9 6 2 5 7 8 9 11 10 11 11 11 13 30 44 44 52 37 31 29 32 35 39 32 33 33 26 25 26 31 35 36 25 20
14 6 8 10 12 12 8 10 12 10 12 9 13 11 9 5 4 3 3 6 9 10 12 13 12 13 11 14 15 19 23 33 43 31 24 27 29 27 32 38 38 33 26 30 29 31 31 31 25
13 1 9 12 15 18 19 11 14 4 9 9 6 3 6 3 4 2 4 8 8 10 14 14 15 15 16 14 17 19 21 26 28 27 25 26 27 26 31 40 44 44 33 38 36 35 31 33 24
1 9 12 17 13 15 19 14 10 9 7 10 11 4 4 3 4 3 7 10 11 11 11 13 17 17 17 18 17 19 24 27 26 23 24 23 22 27 28 38 46 46 39 34 38 35 33 31 29
11 12 10 10 11 11 6 6 14 4 5 3 6 5 4 6 8 8 10 12 13 13 14 14 15 19 21 22 23 23 24 27 29 28 24 26 24 25 29 34 43 43 40 39 36 36 33 29 29
11 9 10 17 12 10 12 7 2 5 4 5 3 3 3 3 5 9 11 12 12 13 15 16 18 19 20 23 25 26 28 28 27 28 29 27 27 29 28 35 37 33 33 37 36 32 29 26 27
11 11 8 12 16 14 16 14 7 13 9 8 5 5 8 8 12 16 15 14 13 12 12 16 20 20 20 21 22 24 27 31 32 34 34 33 34 31 36 35 31 33 32 37 31 30 27 25 23
13 12 8 10 11 18 14 13 8 12 7 7 5 6 9 15 19 19 19 17 15 15 16 17 17 20 23 21 22 23 23 25 30 34 38 38 37 37 37 36 29 30 31 32 29 26 24 22 21
8 13 12 14 13 11 12 6 10 2 3 5 5 11 18 20 19 19 19 19 19 19 19 19 20 20 21 24 24 24 25 26 26 31 35 39 38 37 39 37 30 29 30 32 29 25 22 22 20
13 18 15 12 15 11 13 16 6 6 6 4 12 18 16 18 16 18 20 20 21 20 21 22 23 24 23 23 23 26 25 27 29 30 35 38 36 36 34 30 29 30 32 33 28 27 21 21 23
Wind_Direction
342 341 292 266 247 237 251 179 14 136 168 119 295 256 269 305 294 338 35 339 187 185 186 185 187 180 175 172 170 170 169 163 161 158 158 154 152 149 149 147 144 143 139 137 135 131 126 121 110
335 343 308 248 265 246 235 154 221 178 352 298 273 260 252 271 323 300 287 281 216 187 183 185 188 182 176 175 172 170 169 166 166 164 164 161 158 155 152 151 149 146 144 143 142 136 131 126 114
343 16 279 254 235 259 276 65 263 138 325 284 291 323 319 357 331 308 313 279 195 197 184 185 187 184 178 177 176 173 170 172 171 169 168 167 163 162 159 159 157 153 151 151 147 144 144 124 109
298 253 225 250 236 226 276 288 347 240 305 227 321 288 302 17 333 312 274 256 192 186 185 184 186 184 181 181 179 177 175 175 173 173 173 172 171 170 168 169 166 165 165 163 162 159 142 98 84
262 253 255 245 251 254 242 266 287 274 276 268 312 330 273 350 343 332 305 219 196 186 184 183 183 185 183 182 182 179 179 177 178 179 179 180 180 181 180 182 182 183 180 183 188 197 212 248 267
241 265 244 244 239 193 254 242 264 270 266 265 274 315 151 357 358 354 326 206 194 187 182 183 181 186 185 184 186 184 181 180 183 185 188 189 191 192 193 196 199 206 206 201 211 231 241 253 270
240 239 252 256 256 240 239 246 244 262 280 246 320 304 324 352 357 357 353 194 184 189 185 186 182 188 189 187 188 187 186 187 188 192 194 199 202 206 212 211 215 226 228 230 233 239 247 253 265
242 249 254 251 249 247 228 238 255 245 251 310 293 327 330 342 348 359 357 192 184 192 192 192 186 189 192 193 193 194 191 194 196 199 202 203 210 217 225 229 229 233 243 248 249 249 252 256 261
231 242 244 242 242 249 213 231 222 252 258 268 287 296 322 334 338 345 353 219 191 198 195 194 193 193 194 197 198 199 199 200 204 206 208 210 216 222 231 236 239 243 251 257 259 258 257 256 259
219 234 244 251 252 263 250 231 228 248 260 262 277 276 309 326 324 332 341 272 210 202 201 195 196 196 195 197 202 204 206 207 210 213 216 217 221 226 228 240 243 244 248 261 263 264 262 259 258
226 245 255 251 257 253 260 244 240 240 243 260 299 301 310 312 320 321 325 333 227 218 209 203 199 201 197 198 203 208 209 213 215 217 219 222 225 229 234 237 249 250 253 263 272 271 272 257 249
244 250 259 266 244 243 250 260 269 232 242 271 282 294 302 304 305 311 312 302 310 219 219 216 210 203 201 202 205 206 207 212 216 222 223 223 226 231 228 229 235 251 247 260 256 259 260 260 260
243 254 245 254 252 254 260 255 257 257 258 266 268 290 290 295 291 285 289 290 259 194 227 224 222 219 211 203 207 207 210 216 217 221 230 232 235 236 238 233 237 237 250 255 258 266 264 269 269
305 258 252 248 250 251 252 260 256 258 263 268 231 273 285 288 288 283 265 266 254 226 260 253 230 234 235 228 222 219 219 217 223 223 229 234 232 236 235 243 251 254 270 266 276 267 270 273 267
266 261 245 240 245 251 252 259 251 257 249 248 227 246 283 272 276 278 266 245 243 240 243 269 294 243 238 237 235 234 230 233 233 236 233 239 242 239 241 246 254 267 266 276 288 297 290 273 271
249 244 254 232 240 246 239 257 141 198 243 241 264 246 256 263 259 251 266 233 237 245 213 255 267 275 244 243 246 243 244 246 244 244 246 253 257 250 251 252 262 271 280 309 304 306 289 271 276
208 264 216 208 222 278 225 255 228 208 247 252 258 213 231 240 241 243 265 322 283 237 237 215 241 254 272 251 253 252 246 248 246 249 250 242 255 253 251 253 254 246 269 335 346 314 289 284 273
254 240 214 259 180 256 258 250 248 238 246 255 257 252 221 241 236 250 291 302 282 288 278 254 258 221 237 250 275 288 270 255 250 246 243 242 250 251 249 248 232 218 293 61 328 302 274 287 268
283 269 264 264 269 266 262 262 263 258 257 247 241 241 250 241 247 262 298 300 301 290 265 269 262 254 235 240 253 274 267 264 254 251 250 249 249 245 248 242 219 215 220 272 265 254 263 271 269
256 261 259 266 275 280 284 276 278 268 257 250 243 231 228 234 234 278 299 304 307 284 291 272 274 271 244 229 231 261 270 279 276 261 253 247 249 249 247 241 221 219 250 260 248 250 262 268 255
252 265 280 283 307 281 271 280 256 247 247 223 241 231 206 212 247 274 299 306 319 318 286 293 283 270 254 232 223 231 244 262 264 254 248 245 242 244 237 228 218 232 234 269 250 255 263 253 245
272 258 273 271 276 282 331 291 283 277 242 247 194 204 181 198 241 264 297 310 317 320 314 294 290 289 276 257 242 232 225 236 241 246 245 245 246 244 226 221 223 234 233 239 252 257 256 253 234
277 275 264 279 276 283 270 259 270 205 191 174 171 157 183 263 162 126 341 338 333 324 311 313 295 287 289 270 258 248 244 242 243 242 242 246 249 246 226 222 227 233 236 248 260 256 254 249 233
310 247 247 253 265 262 253 248 254 197 220 172 185 331 252 231 216 290 316 319 318 320 322 316 306 294 282 277 269 263 256 248 246 245 244 242 240 244 231 225 227 236 250 251 258 247 248 244 240
230 250 274 269 224 255 85 246 253 174 175 264 287 272 303 266 252 287 302 307 309 314 319 320 317 301 286 282 275 275 269 264 262 256 249 245 241 234 233 232 234 240 247 253 243 244 243 243 235
231 269 279 285 276 273 155 250 169 209 172 293 246 182 238 270 308 312 315 310 306 308 314 316 317 317 309 288 279 276 276 272 265 261 254 251 247 243 240 239 239 241 242 249 238 238 241 236 234
250 232 301 288 271 264 261 245 221 211 222 184 181 234 274 286 308 313 307 303 297 300 303 310 313 315 312 302 292 288 280 274 270 259 254 254 251 245 250 250 246 240 243 238 229 236 237 231 228
248 286 241 216 265 259 249 240 236 168 176 181 243 290 304 296 294 296 298 294 290 292 298 303 304 309 308 302 294 292 285 282 274 266 254 251 254 255 245 250 247 240 232 224 226 227 224 223 226
199 225 224 269 267 256 272 268 89 147 243 250 266 299 305 303 300 298 295 289 290 292 294 295 298 300 300 302 292 293 288 283 275 270 257 251 252 253 245 239 231 229 223 218 223 217 215 226 212
262 272 250 243 246 237 262 270 298 246 255 272 281 303 299 302 298 301 300 293 287 287 293 297 299 299 296 292 285 288 286 283 278 271 257 248 246 245 234 219 223 217 214 218 220 216 210 214 210